Weather History for Doha International Airport, Qatar

Change the Weather History Date:

Saturday, October 19, 2013

  Actual Average Record
Temperature  
Mean Temperature 87 °F -  
Max Temperature 96 °F 89 °F - ()
Min Temperature 78 °F 70 °F - ()
Cooling Degree Days 22    
Growing Degree Days 37 (Base 50)    
Moisture  
Dew Point 73 °F    
Average Humidity 68    
Maximum Humidity 100    
Minimum Humidity 22    
Precipitation  
Precipitation 0.00 in 0.00 in - ()
Sea Level Pressure  
Sea Level Pressure 29.94 in    
Wind  
Wind Speed 5 mph ()    
Max Wind Speed 10 mph    
Max Gust Speed -    
Visibility 4.1 miles    
Events Fog    
T = Trace of Precipitation, MM = Missing Value Source: Averaged Metar Reports

Daily Weather History Graph

Daily Weather History Graph

Search for Another Location

Airport:

Trip Planner

Search our weather history database for the weather conditions in past years. The results will help you decide how hot, cold, wet, or windy it might be!

Date:

Astronomy

Oct. 19, 2013 Rise Set
Actual Time 5:34 AM AST 5:02 PM AST
Civil Twilight 5:10 AM AST 5:26 PM AST
Nautical Twilight 4:44 AM AST 5:52 PM AST
Astronomical Twilight 4:17 AM AST 6:19 PM AST
Moon 5:21 PM AST (10/19) 5:44 AM AST (10/19)
Length of Visible Light 12h 15m
Length of Day
11h 28m
Full, 100% of the Moon is Illuminated
Oct 19
Full
Oct 27
Last Quarter
Nov 3
New
Nov 10
First Quarter
Nov 17
Full

Hourly Weather History & Observations

Time (AST) Temp. Heat Index Dew Point Humidity Pressure Visibility Wind Dir Wind Speed Gust Speed Precip Events Conditions
12:00 AM 80.6 °F 86.2 °F 75.2 °F 84% 29.92 in 4.3 mi North 3.5 mph - N/A   Unknown
12:30 AM 78.8 °F - 77.0 °F 94% 29.92 in 3.7 mi North 4.6 mph - N/A   Unknown
1:00 AM 80.6 °F 87.1 °F 77.0 °F 89% 29.92 in 3.7 mi NNW 4.6 mph - N/A   Unknown
2:00 AM 80.6 °F 88.1 °F 78.8 °F 94% 29.92 in 3.1 mi North 4.6 mph - N/A   Mostly Cloudy
2:30 AM 80.6 °F 88.1 °F 78.8 °F 94% 29.92 in 1.9 mi North 4.6 mph - N/A   Mostly Cloudy
3:00 AM 81 °F - 78 °F 89% 29.93 in 2 mi North 5.8 mph - - Fog Partial Fog
3:00 AM 80.6 °F 88.1 °F 78.8 °F 94% 29.92 in 0.3 mi North 5.8 mph - N/A Fog Fog
4:00 AM 78.8 °F - 78.8 °F 100% 29.92 in 1.2 mi NNW 3.5 mph - N/A   Mist
4:30 AM 80.6 °F 88.1 °F 78.8 °F 94% 29.92 in 3.1 mi NNW 3.5 mph - N/A   Mist
5:00 AM 78.8 °F - 77.0 °F 94% 29.95 in 3.1 mi North 3.5 mph - N/A   Mist
6:00 AM 80.6 °F 87.1 °F 77.0 °F 89% 29.95 in 3.7 mi NNW 3.5 mph - N/A   Unknown
6:30 AM 80.6 °F 87.1 °F 77.0 °F 89% 29.95 in 3.7 mi North 5.8 mph - N/A   Partly Cloudy
7:00 AM 82.4 °F 89.5 °F 75.2 °F 79% 29.95 in 3.7 mi NNW 5.8 mph - N/A   Partly Cloudy
7:30 AM 78.8 °F - 73.4 °F 83% 29.98 in 3.1 mi South 4.6 mph - N/A   Haze
8:00 AM 80.6 °F 86.2 °F 75.2 °F 84% 29.98 in 3.1 mi WNW 3.5 mph - N/A   Haze
8:30 AM 86.0 °F 93.4 °F 73.4 °F 66% 29.98 in 5.0 mi NNW 4.6 mph - N/A   Unknown
9:00 AM 89 °F - 67 °F 38% 29.99 in 6 mi North 5.8 mph - -  
9:00 AM 89.6 °F 92.2 °F 66.2 °F 46% 29.98 in 6.2 mi North 5.8 mph - N/A   Partly Cloudy
9:30 AM 91.4 °F 94.0 °F 66.2 °F 43% 29.98 in 6.2 mi ENE 5.8 mph - N/A   Partly Cloudy
10:00 AM 89.6 °F 94.7 °F 69.8 °F 52% 29.98 in 6.2 mi ESE 8.1 mph - N/A   Partly Cloudy
11:00 AM 89.6 °F 98.2 °F 73.4 °F 59% 29.98 in - East 4.6 mph - N/A   Clear
11:30 AM 91.4 °F 96.8 °F 69.8 °F 49% 29.95 in - East 6.9 mph - N/A   Clear
12:00 PM 93.2 °F 97.7 °F 68.0 °F 44% 29.95 in - East 4.6 mph - N/A   Clear
12:30 PM 93.2 °F 96.2 °F 66.2 °F 41% 29.95 in - East 6.9 mph - N/A   Clear
1:00 PM 95.0 °F 93.7 °F 57.2 °F 28% 29.92 in - ENE 8.1 mph - N/A   Clear
1:30 PM 96.8 °F - 51.8 °F 22% 29.92 in - NE 10.4 mph - N/A   Clear
2:00 PM 95.0 °F 92.7 °F 53.6 °F 25% 29.92 in - NE 9.2 mph - N/A   Clear
2:30 PM 95.0 °F 97.0 °F 64.4 °F 36% 29.92 in - ENE 6.9 mph - N/A   Clear
3:00 PM 92 °F - 70 °F 39% 29.92 in 10 mi East 6.9 mph - -  
3:00 PM 93.2 °F 98.8 °F 69.8 °F 46% 29.92 in - East 6.9 mph - N/A   Clear
3:30 PM 93.2 °F 94.1 °F 62.6 °F 36% 29.92 in - ENE 5.8 mph - N/A   Clear
4:00 PM 91.4 °F 94.0 °F 66.2 °F 43% 29.92 in - ENE 5.8 mph - N/A   Clear
5:00 PM 87.8 °F 95.6 °F 73.4 °F 62% 29.92 in - ESE 3.5 mph - N/A   Clear
6:00 PM 86.0 °F 93.4 °F 73.4 °F 66% 29.92 in - Variable 2.3 mph - N/A   Clear
6:30 PM 86.0 °F 96.9 °F 77.0 °F 74% 29.92 in - Variable 2.3 mph - N/A   Clear
7:00 PM 84.2 °F 94.1 °F 77.0 °F 79% 29.95 in - North 4.6 mph - N/A   Clear
7:30 PM 84.2 °F 94.1 °F 77.0 °F 79% 29.95 in - North 3.5 mph - N/A   Clear
8:00 PM 84.2 °F 96.1 °F 78.8 °F 84% 29.95 in - North 3.5 mph - N/A   Clear
8:30 PM 84.2 °F 96.1 °F 78.8 °F 84% 29.95 in - North 9.2 mph - N/A   Clear
9:00 PM 84 °F - 78 °F 79% 29.97 in 6 mi North 8.1 mph - -  
9:00 PM 84.2 °F 96.1 °F 78.8 °F 84% 29.95 in - North 8.1 mph - N/A   Clear
9:30 PM 84.2 °F 94.1 °F 77.0 °F 79% 29.95 in - North 6.9 mph - N/A   Clear
10:00 PM 84.2 °F 90.9 °F 73.4 °F 70% 29.95 in - North 6.9 mph - N/A   Clear
10:30 PM 82.4 °F 89.5 °F 75.2 °F 79% 29.95 in - North 6.9 mph - N/A   Clear
11:00 PM 82.4 °F 89.5 °F 75.2 °F 79% 29.95 in - North 10.4 mph - N/A   Clear
11:30 PM 82.4 °F 89.5 °F 75.2 °F 79% 29.95 in - North 9.2 mph - N/A   Clear